Location: Gowrie
(35.4119°S, 149.1090°E)
Time: 23:48:27
(UTC+10:00)

ISS - Visible Passes

Search period start: 23 April 2017 00:00
Search period end: 03 May 2017 00:00
Orbit: 400 x 409 km, 51.6° (Epoch: 23 April)

Date Brightness Start Highest point End Pass type
(mag) Time Alt. Az. Time Alt. Az. Time Alt. Az.
23 Apr -3.1 04:54:14 47° NNE 04:54:14 47° NNE 04:56:47 10° NE visible
24 Apr -1.5 05:37:35 11° NW 05:37:35 11° NW 05:38:18 10° NW visible
26 Apr -1.7 18:51:40 10° N 18:52:56 17° NNE 18:52:56 17° NNE visible
27 Apr -1.5 18:01:32 10° NE 18:02:12 10° NE 18:02:53 10° ENE visible
27 Apr -1.2 19:34:58 10° WNW 19:36:08 20° WNW 19:36:08 20° WNW visible
28 Apr -3.8 18:42:42 10° NW 18:45:58 61° NE 18:46:29 52° E visible
29 Apr -2.6 17:50:53 10° NNW 17:53:45 28° NE 17:56:40 10° ESE visible
29 Apr -1.5 19:27:21 10° W 19:29:24 23° WSW 19:29:24 23° WSW visible
30 Apr -3.0 18:34:33 10° WNW 18:37:46 47° SW 18:39:30 23° SSE visible
01 May -3.8 17:42:06 10° NW 17:45:24 81° NE 17:48:45 10° SE visible
01 May -1.0 19:20:25 10° WSW 19:22:10 14° SSW 19:22:10 14° SSW visible
02 May -1.6 18:27:01 10° W 18:29:40 22° SSW 18:32:04 12° SSE visible
